Regional Weather Roundup
Issued by NWS Newport/Morehead, NC

Home | Current Version | Previous Version | Text Only | Print | Product List | Glossary On
Versions: 1 2 3 4 5 6 7 8 9 10 11 12 13 14 15 16 17 18 19 20 21 22 23 24 25 26 27 28 29 30 31 32 33 34 35 36 37 38 39 40 41 42 43 44 45 46 47 48 49 50
000
ASUS42 KMHX 281626
RWRMHX
WEATHER ROUNDUP FOR EASTERN NORTH CAROLINA
NATIONAL WEATHER SERVICE NEWPORT/MOREHEAD CITY NC
1200 PM EDT FRI JUL 28 2017

NOTE: "FAIR" INDICATES FEW OR NO CLOUDS BELOW 12,000 FEET
WITH NO SIGNIFICANT WEATHER AND/OR OBSTRUCTIONS TO VISIBILITY

NCZ015>017-031-032-045>047-102-103-281700-
NORTH COAST

CITY           SKY/WX    TMP DP  RH WIND       PRES   REMARKS
EDENTON        LGT RAIN  81  77  88 CALM      29.87F
ELIZABETH CITY RAIN      74  74 100 S8        29.86F FOG
KITTY HAWK     RAIN      73  73 100 CALM      29.88S
MANTEO         RAIN      74  72  95 CALM      29.89S

$$

NCZ045>047-081-094-103-104-281700-
CENTRAL COAST

CITY           SKY/WX    TMP DP  RH WIND       PRES   REMARKS
FRISCO         CLOUDY    83  77  82 SW9       29.89F

$$

NCZ095-097-098-100-101-281700-
SOUTHERN COAST

CITY           SKY/WX    TMP DP  RH WIND       PRES   REMARKS
BEAUFORT       CLOUDY    84  78  82 SW10      29.88F
CEDAR ISLAND   NOT AVBL
JACKSONVILLE   CLOUDY    86  76  71 SW10      29.87F
PINEY ISLAND   PTSUNNY  N/A N/A N/A S9        29.87F
WILMINGTON     PTSUNNY   86  75  69 W7        29.87F


$$

NCZ011>013-027>030-043-044-078>080-089-090>093-098-281700-
COASTAL PLAIN

CITY           SKY/WX    TMP DP  RH WIND       PRES   REMARKS
AHOSKIE          N/A     83  77  83 CALM      29.84F
CLINTON        SUNNY     87  75  67 S6        29.86F
ELIZABETHTOWN  NOT AVBL
GOLDSBORO      MOSUNNY   89  74  63 S9        29.84F
GREENVILLE     CLOUDY    86  73  66 SW7       29.87F
HAVELOCK       PTSUNNY   86  74  67 SW7       29.88F
KENANSVILLE    SUNNY     88  72  58 SW7       29.86F
KINSTON        CLOUDY    88  72  58 SW9       29.87F
NEW BERN       PTSUNNY   86  76  71 SW9       29.88F
RICHLANDS      PTSUNNY   88  75  66 SW9       29.87F
ROCKY MOUNT    CLOUDY    88  76  67 SW8       29.84F
WASHINGTON     CLOUDY    84  73  70 SW8       29.86F
WHITEVILLE     CLOUDY    85  74  70 SW5       29.87F

$$

AMZ130-135-150-152-154-156-158-170-250-252-270-ANZ085-086-088-633-658-670-281700-
MARINE OBSERVATIONS

STATION/POSITION TIME  TEMP    WIND        PRES    WAVE   SWELL
                       AIR SEA DIR/SP/G            HT/PER HT/PER
                 (UTC) (F)     (DEG/KT/KT) (MB)    (FT/S) (FT/S)
CHESAPEAKE LIGHT NOT AVBL
64 E VA BEACH    1550   75 76  220/ 14/ 17 1011.1    4/ 5   2/ 8
DUCK             1600   75 64  230/ 11/ 13 1011.4
2 E DUCK         1600      68                N/A     2/ 9
OREGON INLET     1600   75 79   30/  4/  5 1011.7
13E OREGON INLT  1548      77                N/A     3/ 5   2/ 5
HATTERAS CG      1600   82 80  200/  4/  9 1011.9
DIAMOND BUOY     1550   81 83  270/  8/ 10 1012.1    3/ 9   2/ 9
CAPE LOOKOUT     1600   82     220/  7/  8 1011.7
BEAUFORT LAB     1600   83 79  220/  5/  8 1011.2
30 SE NEW RVR IN 1608   82 84  240/ 12/ 14 1011.9
30 SE NEW RVR IN 1543      83                N/A     3/ 4
27 SE WRIGHTSVLE 1608   82 82  220/ 12/ 17 1011.6
5 SE WRIGHTSVLE  1608   82 82  220/ 10/ 16 1011.3
225 S CAPE HAT   1550   82 83  240/ 10/ 12 1014.4    3/ 8   2/ 8
41 SE CHARLESTON 1610   81 81  230/  6/  6 1011.4

$$




USA.gov is the U.S. government's official web portal to all federal, state and local government web resources and services.